Погода в Сандэнсе

США     44°24′22″N   104°22′28″W
темп.,
°C
ветер,
м/с
пор.,
м/с
влажн.,
%
обл.,
%
осадки,
мм/ч
давл.,
гПа
погр.,
м
21 октября, чт
чт2100:000ююз227447 0.0 102214
03:00+1юз34805 0.0 102236
06:00+2юз33840 0.0 102236
09:00+7юз3372100 0.0 102191
12:00+13зюз2348100 0.0 1018521
15:00+14зюз33435 0.0 1017990
18:00+8ююз33663 0.0 101720
21:00+6ююз466990 0.0 101773
22 октября, пт
пт2200:00+7юз45696 0.0 101665
03:00+7юз44663 0.0 101445
06:00+6юз22654 0.0 101415
09:00+9юз22565 0.0 101474
12:00+15юз23384 0.0 1011816
15:00+17юв02335 0.0 10081215
18:00+9св11666 0.0 100811
21:00+7ююв227199 0.0 100817
23 октября, сб
сб2300:00+8ю3662100 0.0 1005102
03:00+8ю235675 0.0 100356
06:00+8ююз485152 0.0 1002142
09:00+11юз51242100 0.0 1002372
12:00+15зюз4631100 0.0 1001737
15:00+15зсз1334100 0.0 10001173
18:00+9св2366100 0.0 100387
21:00+7ююв1170100 0.0 100313
24 октября, вс
вс2400:00+6ссв117471 0.0 100314
03:00+6ссв237898 0.0 100499
06:00+3св1296100 0.0 100772
09:00+6с128359 0.0 1008309
12:00+9ссв236153 0.0 10071037
15:00+12св23455 0.0 10051464
18:00+7в22664 0.0 100734
21:00+5юв227196 0.0 100716
25 октября, пн
пн2500:00+5ю245992 0.0 100574
03:00+9ю71651100 0.0 1001558
06:00+11ю102045100 0.0 998694
09:00+12ю81748100 0.0 996801
12:00+16ююз10233912 0.0 9912094
15:00+17ююз12234514 0.1 9892042
18:00+13ююз11186544 1.1 9891282
21:00+9зсз7136981 0.1 993605